weather.gov     
National Weather Service

Regional Weather Roundup
NWS Homepage
This page is being discontinued on March 12, 2014.
The same data is available at this site. Please update your bookmarks.
Thank you, and we apologize for the inconvenience.
Please send an email to SR-SRH.Webmaster@noaa.gov with any concerns.


Current Version
Previous Version:    01  02  03  04  05  06  07  08  09  10  11  12  13  14  15  16  17  18  19  20  21  22  23  24  25  26  27  
[Printable]
799
ASUS41 KBGM 012210
RWRBGM
RWRBGM
BINGHAMTON REGIONAL WEATHER ROUNDUP
NATIONAL WEATHER SERVICE BINGHAMTON NY
600 PM EDT FRI AUG 01 2014

Note: "fair" indicates few or no clouds below 12,000 feet with no
significant weather and/or obstructions to visibility.

* = Station(s) that does not report precipitation, such as rain,
snow, etc, also no thunder or fog.

!NYZ009-015>018-022>025-036-037-044>046-055>057-062-012300
...CENTRAL NEW YORK...

CITY           SKY/WX    TMP DP  RH WIND       PRES   REMARKS
BINGHAMTON     PTSUNNY   78  60  53 S5        30.16F
CORTLAND       FAIR      79  61  53 SW7       30.15F
DANSVILLE      PTSUNNY   77  62  59 NW9       30.11R
ELMIRA         PTSUNNY   84  59  42 S7        30.11F
ITHACA         MOSUNNY   81  62  52 S6        30.14F
HAMILTON       CLEAR     81  61  50 CALM      30.15F
MONTICELLO     CLOUDY    66  64  94 E3        30.24R THUNDER
NORWICH        SUNNY     79  59  50 CALM      30.15F
PENN YAN       MOSUNNY   82  58  43 S6        30.12S
ROME           MOSUNNY   82  60  47 VRB3      30.13S
SIDNEY         SUNNY     81  66  61 S9        30.15S
SYRACUSE       CLOUDY    84  57  39 SE6       30.11R
$$

!PAZ038>040-043-044-047-048-072-012300
...NORTHEAST PENNSYLVANIA...

CITY           SKY/WX    TMP DP  RH WIND       PRES   REMARKS
HAZLETON       CLOUDY    68  63  83 CALM      30.23S
SCRANTON       CLOUDY    72  66  81 E3        30.16F
TOWANDA*       MOSUNNY   82  57  42 S7        30.12F
$$
&&
KEY
WCI = WIND CHILL INDEX
VSB = VISIBILITY
HX  = HEAT INDEX
$$




U.S. Dept. of Commerce
NOAA National Weather Service
1325 East West Highway
Silver Spring, MD 20910
E-mail: w-nws.webmaster@noaa.gov
Page last modified: May 16, 2007
NATIONAL WEATHER SERVICE: for Safety, for Work, for Fun - FOR LIFE